TimeCDT,TemperatureF,Dew PointF,Humidity,Sea Level PressureIn,VisibilityMPH,Wind Direction,Wind SpeedMPH,Gust SpeedMPH,PrecipitationIn,Events,Conditions,WindDirDegrees,DateUTC
12:53 AM,82.0,75.0,79,30.04,10.0,SSE,11.5,-,N/A,,Clear,160,2013-08-12 05:53:00
1:53 AM,82.0,75.0,79,30.04,10.0,SSE,11.5,-,N/A,,Partly Cloudy,160,2013-08-12 06:53:00
2:53 AM,82.0,75.9,82,30.03,10.0,SSE,10.4,-,N/A,,Partly Cloudy,150,2013-08-12 07:53:00
3:53 AM,82.0,75.0,79,30.03,10.0,SSE,10.4,-,N/A,,Mostly Cloudy,160,2013-08-12 08:53:00
4:53 AM,82.9,73.9,74,30.03,10.0,South,8.1,-,N/A,,Partly Cloudy,180,2013-08-12 09:53:00
5:53 AM,82.9,75.0,77,30.02,10.0,South,8.1,-,N/A,,Scattered Clouds,180,2013-08-12 10:53:00
6:53 AM,82.9,75.0,77,30.04,10.0,South,8.1,-,N/A,,Partly Cloudy,190,2013-08-12 11:53:00
7:40 AM,82.4,75.2,79,30.04,10.0,SSW,9.2,-,0.00,,Scattered Clouds,200,2013-08-12 12:40:00
7:53 AM,82.9,75.0,77,30.04,10.0,SSW,8.1,-,0.00,,Clear,200,2013-08-12 12:53:00
8:50 AM,84.2,75.2,74,30.06,10.0,SW,8.1,-,N/A,,Mostly Cloudy,230,2013-08-12 13:50:00
8:53 AM,84.9,75.0,72,30.06,10.0,SW,8.1,-,N/A,,Mostly Cloudy,230,2013-08-12 13:53:00
9:07 AM,84.2,75.2,74,30.06,10.0,West,5.8,-,N/A,,Scattered Clouds,260,2013-08-12 14:07:00
9:37 AM,82.4,75.2,79,30.07,1.8,WSW,3.5,-,0.06,Rain,Heavy Rain,240,2013-08-12 14:37:00
9:45 AM,82.4,77.0,84,30.07,3.0,Calm,Calm,-,0.06,Rain,Light Rain,0,2013-08-12 14:45:00
9:53 AM,82.0,77.0,85,30.07,10.0,Calm,Calm,-,0.06,,Mostly Cloudy,0,2013-08-12 14:53:00
10:53 AM,86.0,75.9,72,30.08,10.0,South,5.8,-,N/A,,Partly Cloudy,190,2013-08-12 15:53:00
11:53 AM,88.0,73.9,63,30.08,10.0,SSW,9.2,-,N/A,,Clear,200,2013-08-12 16:53:00
12:53 PM,90.0,75.0,61,30.06,10.0,SSW,10.4,-,N/A,,Clear,200,2013-08-12 17:53:00
1:53 PM,91.0,72.0,53,30.06,10.0,SSW,11.5,-,N/A,,Clear,200,2013-08-12 18:53:00
2:53 PM,91.9,75.0,58,30.04,10.0,South,10.4,-,N/A,,Clear,190,2013-08-12 19:53:00
3:53 PM,90.0,75.9,63,30.03,10.0,South,8.1,-,N/A,,Clear,190,2013-08-12 20:53:00
4:53 PM,90.0,75.9,63,30.01,10.0,SSE,15.0,-,N/A,,Clear,150,2013-08-12 21:53:00
5:53 PM,90.0,75.0,61,30.00,10.0,SSE,13.8,-,N/A,,Clear,150,2013-08-12 22:53:00
6:53 PM,88.0,75.0,65,29.99,10.0,SSE,13.8,-,N/A,,Clear,160,2013-08-12 23:53:00
7:53 PM,86.0,75.0,70,29.99,10.0,SSE,12.7,-,N/A,,Clear,150,2013-08-13 00:53:00
8:53 PM,84.9,75.9,74,30.00,10.0,SSE,12.7,-,N/A,,Clear,160,2013-08-13 01:53:00
9:53 PM,84.0,77.0,79,30.01,10.0,SSE,9.2,-,N/A,,Clear,150,2013-08-13 02:53:00
10:53 PM,84.0,77.0,79,30.02,10.0,SSE,10.4,-,N/A,,Clear,150,2013-08-13 03:53:00
11:53 PM,82.9,77.0,82,30.01,10.0,SSE,11.5,-,N/A,,Clear,160,2013-08-13 04:53:00